TimePST,TemperatureF,Dew PointF,Humidity,Sea Level PressureIn,VisibilityMPH,Wind Direction,Wind SpeedMPH,Gust SpeedMPH,PrecipitationIn,Events,Conditions,WindDirDegrees,DateUTC
12:23 AM,35.6,30.2,81,29.76,1.8,Calm,Calm,-,0.00,Snow,Light Snow,0,2013-03-06 08:23:00
12:34 AM,33.8,30.2,87,29.76,0.8,Calm,Calm,-,0.00,Snow,Light Snow,0,2013-03-06 08:34:00
12:53 AM,35.1,30.9,85,29.79,0.5,Calm,Calm,-,0.00,Fog-Snow,Light Snow,0,2013-03-06 08:53:00
1:21 AM,35.6,30.2,81,29.74,0.8,Calm,Calm,-,0.01,Snow,Light Snow,0,2013-03-06 09:21:00
1:44 AM,35.6,30.2,81,29.73,0.8,Calm,Calm,-,0.03,Snow,Light Snow,0,2013-03-06 09:44:00
1:53 AM,34.0,30.9,89,29.76,0.8,Calm,Calm,-,0.03,Snow,Light Snow,0,2013-03-06 09:53:00
2:22 AM,33.8,30.2,87,29.71,0.5,Calm,Calm,-,0.01,Fog-Snow,Light Snow,0,2013-03-06 10:22:00
2:49 AM,33.8,30.2,87,29.69,0.2,WSW,3.5,-,0.02,Fog-Snow,Light Snow,250,2013-03-06 10:49:00
2:53 AM,34.0,30.9,89,29.73,0.2,Calm,Calm,-,0.02,Fog-Snow,Light Snow,0,2013-03-06 10:53:00
3:36 AM,33.8,30.2,87,29.68,0.2,Calm,Calm,-,0.01,Fog-Snow,Light Snow,0,2013-03-06 11:36:00
3:45 AM,33.8,30.2,87,29.67,0.5,Calm,Calm,-,0.01,Fog-Snow,Light Snow,0,2013-03-06 11:45:00
3:53 AM,34.0,30.9,89,29.70,0.8,Calm,Calm,-,0.01,Snow,Light Snow,0,2013-03-06 11:53:00
3:57 AM,33.8,30.2,87,29.67,1.0,Calm,Calm,-,0.01,Snow,Light Snow,0,2013-03-06 11:57:00
4:15 AM,33.8,30.2,87,29.66,1.2,Calm,Calm,-,0.01,Snow,Light Snow,0,2013-03-06 12:15:00
4:53 AM,34.0,30.0,85,29.68,1.2,Calm,Calm,-,0.01,Snow,Light Snow,0,2013-03-06 12:53:00
5:08 AM,33.8,30.2,87,29.64,1.2,Calm,Calm,-,0.01,Snow,Light Snow,0,2013-03-06 13:08:00
5:31 AM,33.8,30.2,87,29.64,1.0,Calm,Calm,-,0.02,Snow,Light Snow,0,2013-03-06 13:31:00
5:49 AM,33.8,30.2,87,29.63,0.8,Calm,Calm,-,0.02,Snow,Light Snow,0,2013-03-06 13:49:00
5:53 AM,34.0,30.9,89,29.67,0.8,Calm,Calm,-,0.02,Snow,Light Snow,0,2013-03-06 13:53:00
6:14 AM,33.8,30.2,87,29.62,0.8,Calm,Calm,-,0.00,Snow,Light Snow,0,2013-03-06 14:14:00
6:28 AM,33.8,30.2,87,29.62,1.0,Calm,Calm,-,0.01,Snow,Light Snow,0,2013-03-06 14:28:00
6:53 AM,34.0,30.0,85,29.65,1.0,Calm,Calm,-,0.01,Snow,Light Snow,0,2013-03-06 14:53:00
7:06 AM,33.8,30.2,87,29.61,0.8,Calm,Calm,-,0.00,Snow,Light Snow,0,2013-03-06 15:06:00
7:18 AM,33.8,30.2,87,29.61,1.2,Calm,Calm,-,0.00,Snow,Light Snow,0,2013-03-06 15:18:00
7:25 AM,33.8,30.2,87,29.61,1.0,Calm,Calm,-,0.00,Snow,Light Snow,0,2013-03-06 15:25:00
7:27 AM,33.8,30.2,87,29.61,0.8,Calm,Calm,-,0.00,Snow,Light Snow,0,2013-03-06 15:27:00
7:53 AM,35.1,30.9,85,29.63,0.5,Calm,Calm,-,0.01,Fog-Snow,Light Snow,0,2013-03-06 15:53:00
8:11 AM,33.8,30.2,87,29.60,0.5,Calm,Calm,-,0.00,Fog-Snow,Light Snow,0,2013-03-06 16:11:00
8:30 AM,35.6,30.2,81,29.59,0.2,WSW,3.5,-,0.00,Fog-Snow,Light Snow,250,2013-03-06 16:30:00
8:53 AM,35.1,30.9,85,29.63,0.2,Calm,Calm,-,0.01,Fog-Snow,Light Snow,0,2013-03-06 16:53:00
9:20 AM,35.6,30.2,81,29.59,0.2,Calm,Calm,-,0.00,Fog-Snow,Light Snow,0,2013-03-06 17:20:00
9:28 AM,35.6,30.2,81,29.59,0.8,Calm,Calm,-,0.00,Snow,Light Snow,0,2013-03-06 17:28:00
9:30 AM,35.6,30.2,81,29.59,1.0,Calm,Calm,-,0.00,Snow,Light Snow,0,2013-03-06 17:30:00
9:34 AM,35.6,30.2,81,29.59,2.0,Calm,Calm,-,0.00,,Overcast,0,2013-03-06 17:34:00
9:38 AM,35.6,30.2,81,29.59,3.0,Calm,Calm,-,0.00,,Overcast,0,2013-03-06 17:38:00
9:49 AM,35.6,30.2,81,29.59,5.0,Calm,Calm,-,0.00,,Haze,0,2013-03-06 17:49:00
9:53 AM,36.0,30.9,82,29.62,5.0,Calm,Calm,-,0.00,,Haze,0,2013-03-06 17:53:00
10:02 AM,35.6,30.2,81,29.59,6.0,Calm,Calm,-,N/A,,Haze,0,2013-03-06 18:02:00
10:25 AM,37.4,30.2,75,29.59,2.0,Calm,Calm,-,0.01,Snow,Light Snow,0,2013-03-06 18:25:00
10:53 AM,37.0,32.0,82,29.63,5.0,Calm,Calm,-,0.01,,Overcast,0,2013-03-06 18:53:00
11:01 AM,37.4,32.0,81,29.59,5.0,Calm,Calm,-,0.00,Snow,Light Snow,0,2013-03-06 19:01:00
11:36 AM,37.4,32.0,81,29.60,7.0,Calm,Calm,-,0.01,,Overcast,0,2013-03-06 19:36:00
11:53 AM,37.0,32.0,82,29.63,9.0,Calm,Calm,-,0.01,,Overcast,0,2013-03-06 19:53:00
12:02 PM,35.6,32.0,87,29.60,10.0,Calm,Calm,-,0.00,,Overcast,0,2013-03-06 20:02:00
12:21 PM,37.4,32.0,81,29.60,8.0,Calm,Calm,-,0.00,Rain,Light Rain,0,2013-03-06 20:21:00
12:40 PM,35.6,32.0,87,29.60,6.0,Calm,Calm,-,0.00,Rain,Light Rain,0,2013-03-06 20:40:00
12:53 PM,36.0,32.0,86,29.64,2.5,SE,3.5,-,0.00,,Overcast,130,2013-03-06 20:53:00
1:08 PM,35.6,32.0,87,29.60,3.0,Calm,Calm,-,N/A,,Overcast,0,2013-03-06 21:08:00
1:53 PM,37.0,32.0,82,29.65,5.0,Calm,Calm,-,0.00,,Overcast,0,2013-03-06 21:53:00
2:17 PM,37.4,32.0,81,29.61,2.0,Calm,Calm,-,0.01,Snow,Light Snow,0,2013-03-06 22:17:00
2:27 PM,35.6,32.0,87,29.61,1.5,Calm,Calm,-,0.01,Snow,Light Snow,0,2013-03-06 22:27:00
2:32 PM,35.6,32.0,87,29.61,1.0,Calm,Calm,-,0.02,Snow,Light Snow,0,2013-03-06 22:32:00
2:53 PM,36.0,32.0,86,29.66,1.0,Calm,Calm,-,0.03,Snow,Light Snow,0,2013-03-06 22:53:00
3:11 PM,35.6,32.0,87,29.62,1.2,Calm,Calm,-,0.01,Snow,Light Snow,0,2013-03-06 23:11:00
3:53 PM,36.0,32.0,86,29.67,2.0,Calm,Calm,-,0.03,Snow,Light Snow,0,2013-03-06 23:53:00
4:12 PM,35.6,32.0,87,29.63,4.0,Calm,Calm,-,0.01,Rain,Light Rain,0,2013-03-07 00:12:00
4:53 PM,37.0,32.0,82,29.69,10.0,Calm,Calm,-,0.01,,Overcast,0,2013-03-07 00:53:00
5:12 PM,37.4,33.8,87,29.66,10.0,Calm,Calm,-,N/A,,Overcast,0,2013-03-07 01:12:00
5:46 PM,37.4,32.0,81,29.67,7.0,Calm,Calm,-,N/A,,Overcast,0,2013-03-07 01:46:00
5:53 PM,37.0,32.0,82,29.70,7.0,Calm,Calm,-,N/A,,Overcast,0,2013-03-07 01:53:00
6:53 PM,37.0,32.0,82,29.73,3.0,Calm,Calm,-,0.00,,Haze,0,2013-03-07 02:53:00
7:37 PM,35.6,33.8,93,29.71,1.8,Calm,Calm,-,N/A,,Overcast,0,2013-03-07 03:37:00
7:42 PM,35.6,33.8,93,29.71,0.8,Calm,Calm,-,N/A,,Overcast,0,2013-03-07 03:42:00
7:53 PM,36.0,33.1,89,29.75,0.8,Calm,Calm,-,N/A,,Overcast,0,2013-03-07 03:53:00
8:53 PM,36.0,33.1,89,29.78,0.2,Calm,Calm,-,N/A,Fog,Fog,0,2013-03-07 04:53:00
9:53 PM,35.1,32.0,89,29.81,0.8,Calm,Calm,-,N/A,,Overcast,0,2013-03-07 05:53:00
9:56 PM,35.6,32.0,87,29.77,1.2,Calm,Calm,-,N/A,,Overcast,0,2013-03-07 05:56:00
10:08 PM,33.8,30.2,87,29.78,1.0,Calm,Calm,-,N/A,,Overcast,0,2013-03-07 06:08:00
10:20 PM,33.8,30.2,87,29.79,0.5,Calm,Calm,-,N/A,Fog,Fog,0,2013-03-07 06:20:00
10:47 PM,35.6,30.2,81,29.80,1.2,Calm,Calm,-,N/A,,Overcast,0,2013-03-07 06:47:00
10:53 PM,35.1,30.9,85,29.84,3.0,Calm,Calm,-,N/A,,Overcast,0,2013-03-07 06:53:00
11:53 PM,34.0,30.9,89,29.86,4.0,Calm,Calm,-,N/A,,Overcast,0,2013-03-07 07:53:00